Eugene, OR

5:15 AM PDT on August 17, 2017 (GMT -0700)
Mahlon Sweet

Weather History for KEUG - July, 2013

Change the Weather History Date:

Friday, July 19, 2013

  Actual Average Record
Temperature  
Mean Temperature 68 °F 68 °F  
Max Temperature 89 °F 84 °F 102 °F (1988)
Min Temperature 47 °F 52 °F 39 °F (1926)
Degree Days  
Heating Degree Days 0 1  
Month to date heating degree days 4 28  
Since 1 June heating degree days 96 185  
Since 1 July heating degree days 4 28  
Cooling Degree Days 3 4  
Month to date cooling degree days 82 49  
Year to date cooling degree days 135 73  
Since 1 June cooling degree days 130 68  
Growing Degree Days 18 (Base 50)    
Moisture  
Dew Point 53 °F    
Average Humidity 66    
Maximum Humidity 100    
Minimum Humidity 31    
Precipitation  
Precipitation 0.00 in 0.01 in 0.09 in (1945)
Month to date precipitation 0.00 0.39  
Year to date precipitation 9.67 25.25  
Snow  
Snow 0.00 in - - ()
Month to date snowfall 0.0  
Since 1 June snowfall 0.0  
Since 1 July snowfall 0.0  
Snow Depth 0.00 in    
Sea Level Pressure  
Sea Level Pressure 30.08 in    
Wind  
Wind Speed 8 mph (North)    
Max Wind Speed 20 mph    
Max Gust Speed 26 mph    
Visibility 10 miles    
Events Fog    
T = Trace of Precipitation, MM = Missing Value Source: NWS Daily Summary

Daily Weather History Graph

Daily Weather History Graph

Search for Another Location

Airport or City:

Trip Planner

Search our weather history database for the weather conditions in past years. The results will help you decide how hot, cold, wet, or windy it might be!

Date:

Astronomy

Jul. 19, 2013 Rise Set
Actual Time 5:47 AM PDT 8:50 PM PDT
Civil Twilight 5:13 AM PDT 9:24 PM PDT
Nautical Twilight 4:28 AM PDT 10:08 PM PDT
Astronomical Twilight 3:35 AM PDT 11:01 PM PDT
Moon 5:58 PM PDT (7/19) 2:34 AM PDT (7/19)
Length of Visible Light 16h 11m
Length of Day
15h 02m
Waxing Gibbous, 87% of the Moon is Illuminated
Jul 19
Waxing Gibbous
Jul 22
Full
Jul 29
Last Quarter
Aug 6
New
Aug 14
First Quarter

Hourly Weather History & Observations

Time (PDT) Temp. Heat Index Dew Point Humidity Pressure Visibility Wind Dir Wind Speed Gust Speed Precip Events Conditions
12:54 AM 60.1 °F - 52.0 °F 75% 30.11 in 10.0 mi Calm Calm - N/A   Clear
1:54 AM 57.0 °F - 52.0 °F 83% 30.12 in 10.0 mi NNW 4.6 mph - N/A   Clear
2:54 AM 57.0 °F - 51.1 °F 81% 30.12 in 10.0 mi Calm Calm - N/A   Clear
3:54 AM 53.1 °F - 52.0 °F 96% 30.11 in 10.0 mi Calm Calm - N/A   Clear
4:54 AM 54.0 °F - 50.0 °F 86% 30.12 in 10.0 mi Calm Calm - N/A   Clear
5:54 AM 48.0 °F - 48.0 °F 100% 30.13 in 10.0 mi Calm Calm - N/A Fog Shallow Fog
5:56 AM 46.4 °F - 46.4 °F 100% 30.13 in 10.0 mi Calm Calm - N/A Fog Shallow Fog
6:06 AM 48.2 °F - 46.4 °F 93% 30.13 in 10.0 mi Calm Calm - N/A Fog Shallow Fog
6:54 AM 54.0 °F - 52.0 °F 93% 30.13 in 10.0 mi Calm Calm - N/A   Clear
7:54 AM 59.0 °F - 52.0 °F 78% 30.14 in 10.0 mi Calm Calm - N/A   Clear
8:54 AM 64.9 °F - 53.1 °F 65% 30.14 in 10.0 mi North 11.5 mph - N/A   Clear
9:54 AM 68.0 °F - 54.0 °F 61% 30.12 in 10.0 mi NNE 11.5 mph - N/A   Clear
10:54 AM 72.0 °F - 55.0 °F 55% 30.12 in 10.0 mi North 10.4 mph - N/A   Clear
11:54 AM 75.0 °F - 55.9 °F 51% 30.10 in 10.0 mi North 12.7 mph - N/A   Clear
12:54 PM 80.1 °F 80.2 °F 55.9 °F 43% 30.08 in 10.0 mi NE 12.7 mph 21.9 mph N/A   Clear
1:54 PM 82.0 °F 81.4 °F 55.0 °F 39% 30.05 in 10.0 mi NNE 15.0 mph 19.6 mph N/A   Clear
2:54 PM 84.9 °F 83.6 °F 55.0 °F 36% 30.04 in 10.0 mi North 11.5 mph 26.5 mph N/A   Clear
3:54 PM 87.1 °F 84.9 °F 53.1 °F 31% 30.02 in 10.0 mi NNE 17.3 mph 25.3 mph N/A   Clear
4:54 PM 88.0 °F 85.9 °F 54.0 °F 31% 30.00 in 10.0 mi NNE 13.8 mph 21.9 mph N/A   Clear
5:54 PM 87.1 °F 85.7 °F 55.9 °F 35% 30.00 in 10.0 mi North 12.7 mph 17.3 mph N/A   Clear
6:54 PM 86.0 °F 84.7 °F 55.9 °F 36% 29.99 in 10.0 mi North 15.0 mph - N/A   Clear
7:54 PM 82.0 °F 81.7 °F 57.0 °F 42% 29.99 in 10.0 mi NW 10.4 mph - N/A   Clear
8:54 PM 73.9 °F - 57.0 °F 55% 30.00 in 10.0 mi NW 8.1 mph - N/A   Clear
9:54 PM 66.9 °F - 55.9 °F 68% 30.03 in 10.0 mi NNE 5.8 mph - N/A   Clear
10:54 PM 64.0 °F - 55.0 °F 73% 30.05 in 10.0 mi NE 5.8 mph - N/A   Clear
11:54 PM 63.0 °F - 54.0 °F 72% 30.05 in 10.0 mi Calm Calm - N/A   Clear